User: anonymous   Login
Location: Ikejouine
(32.5142°N, 5.4699°W)
Time: 11:25:15
(UTC+00:00)
Language:

STARLINK-1123 - Orbit

View from above orbital plane
View from above orbital plane
View from above satellite
View from above satellite

Ground track
Ground track

The orbit data is extracted from the following two-line orbital elements,

1 44930U 20001S   20190.91667824 -.00037737  00000-0 -25829-2 0  9995
2 44930  53.0002 278.1918 0001316 107.9978 235.8728 15.05604862 27898
Epoch (UTC): 08 July 2020 22:00:01
Eccentricity: 0.0001316
inclination: 53.0002°
perigee height: 549 km
apogee height: 550 km
right ascension of ascending node: 278.1918°
argument of perigee: 107.9978°
revolutions per day: 15.05604862
mean anomaly at epoch: 235.8728°
orbit number at epoch: 2789

The dashed part of the orbit path shows where the satellite is in the earth's shadow,  

DLR